FW1340 Weather Reports


time (UTC)temp
C
wind
direction
speed
KPH
gust
KPH
rain 1hr
cm
rain 24hr
cm
rain mn
cm
humidity
%
barometer
mb
20260903194530 25 173 0.0 0.0 0.00 0.00 0.00 56 1013.4
20260903193028 24 226 0.0 0.0 0.00 0.00 0.00 57 1013.7
20260903191535 23 242 0.0 0.0 0.00 0.00 0.00 59 1013.9
20260903190020 23 257 0.0 0.0 0.00 0.00 0.00 61 1014.1
20260903184518 23 257 0.0 0.0 0.00 0.00 0.00 63 1014.3
20260903183024 23 254 0.0 0.0 0.00 0.00 0.00 62 1014.4
20260903181512 22 250 0.0 0.0 0.00 0.00 0.00 64 1014.5
20260903180114 22 264 0.0 0.0 0.00 0.00 0.00 65 1014.6
20260903174509 22 209 0.0 0.0 0.00 0.00 0.00 65 1014.6
20260903173005 21 215 0.0 0.0 0.00 0.00 0.00 66 1014.7
20260903171502 21 243 0.0 0.0 0.00 0.00 0.00 68 1014.8
20260903170000 21 240 0.0 0.0 0.00 0.00 0.00 68 1014.9
20260903164557 21 226 0.0 0.0 0.00 0.00 0.00 70 1015.1
20260903163121 20 234 0.0 0.0 0.00 0.00 0.00 71 1015.0
20260903161549 20 229 0.0 0.0 0.00 0.00 0.00 74 1015.2
20260903160048 19 178 0.0 0.0 0.00 0.00 0.00 76 1015.2
20260903154541 18 108 0.0 0.0 0.00 0.00 0.00 79 1015.3
20260903153035 17 169 0.0 0.0 0.00 0.00 0.00 82 1015.4
20260903151533 16 128 0.0 0.0 0.00 0.00 0.00 87 1015.6
20260903150028 15 107 0.0 0.0 0.00 0.00 0.00 91 1015.5
20260903144525 14 105 0.0 0.0 0.00 0.00 0.00 94 1015.5
20260903143020 13 134 0.0 0.0 0.00 0.00 0.00 94 1015.4
20260903141517 12 128 0.0 0.0 0.00 0.00 0.00 94 1015.4
20260903140016 12 117 0.0 0.0 0.00 0.00 0.00 93 1015.4
20260903134512 12 125 0.0 0.0 0.00 0.00 0.00 93 1015.2
20260903133013 12 89 0.0 0.0 0.00 0.00 0.00 93 1015.2
20260903131510 12 89 0.0 0.0 0.00 0.00 0.00 93 1015.1
20260903130008 12 92 0.0 0.0 0.00 0.00 0.00 93 1015.2
20260903124507 12 88 0.0 0.0 0.00 0.00 0.00 92 1015.2
20260903123005 12 92 0.0 0.0 0.00 0.00 0.00 93 1015.2
20260903121509 12 94 0.0 0.0 0.00 0.00 0.00 92 1015.3
20260903120002 12 105 0.0 0.0 0.00 0.00 0.00 92 1015.4
20260903114607 12 88 0.0 0.0 0.00 0.00 0.00 91 1015.6
20260903113101 12 106 0.0 0.0 0.00 0.00 0.00 90 1015.6
20260903111556 13 237 0.0 0.0 0.00 0.00 0.00 92 1015.6
20260903104554 13 81 0.0 0.0 0.00 0.00 0.00 92 1015.6
20260903103054 12 81 0.0 0.0 0.00 0.00 0.00 90 1015.7
20260903101551 12 130 0.0 0.0 0.00 0.00 0.00 88 1015.8
20260903100049 13 129 0.0 0.0 0.00 0.00 0.00 87 1015.8
20260903094546 13 184 0.0 0.0 0.00 0.00 0.00 86 1015.7
20260903093043 14 229 0.0 0.0 0.00 0.00 0.00 87 1015.7
20260903091539 14 229 0.0 0.0 0.00 0.00 0.00 88 1016.0
20260903090038 14 219 0.0 0.0 0.00 0.00 0.00 86 1016.2
20260903084535 15 242 0.0 0.0 0.00 0.00 0.00 86 1016.1
20260903083042 15 225 0.0 0.0 0.00 0.00 0.00 85 1016.1
20260903081532 15 257 0.0 0.0 0.00 0.00 0.00 85 1016.1
20260903080030 15 252 0.0 0.0 0.00 0.00 0.00 84 1016.1
20260903074528 15 257 0.0 0.0 0.00 0.00 0.00 83 1016.1
20260903073026 16 244 0.0 0.0 0.00 0.00 0.00 82 1016.0
20260903071527 16 269 0.0 0.0 0.00 0.00 0.00 82 1016.0
20260903070022 16 251 0.0 0.0 0.00 0.00 0.00 81 1016.0
20260903064521 16 273 0.0 0.0 0.00 0.00 0.00 80 1015.9
20260903063021 16 257 0.0 0.0 0.00 0.00 0.00 77 1015.9
20260903061533 17 263 0.0 0.0 0.00 0.00 0.00 76 1016.0
20260903060020 17 262 0.0 0.0 0.00 0.00 0.00 74 1016.0
20260903054520 17 267 0.0 0.0 0.00 0.00 0.00 73 1015.9
20260903053018 17 259 0.0 0.0 0.00 0.00 0.00 72 1016.0
20260903051517 18 263 0.0 0.0 0.00 0.00 0.00 70 1015.9
20260903050017 18 259 0.0 0.0 0.00 0.00 0.00 69 1015.9
20260903044517 18 274 0.0 0.0 0.00 0.00 0.00 67 1015.8
20260903043018 19 252 0.0 0.0 0.00 0.00 0.00 67 1015.7
20260903041528 19 279 0.0 0.0 0.00 0.00 0.00 65 1015.6
20260903040015 20 281 0.0 0.0 0.00 0.00 0.00 65 1015.5
20260903034514 20 286 0.0 0.0 0.00 0.00 0.00 64 1015.3
20260903033017 20 267 0.0 0.0 0.00 0.00 0.00 61 1015.1
20260903031522 21 314 0.0 0.0 0.00 0.00 0.00 59 1015.0
20260903030016 21 266 0.0 0.0 0.00 0.00 0.00 57 1014.9
20260903024512 21 261 0.0 0.0 0.00 0.00 0.00 56 1014.8
20260903023010 22 289 0.0 0.0 0.00 0.00 0.00 55 1014.9
20260903021509 22 265 0.0 0.0 0.00 0.00 0.00 55 1014.9
20260903020029 23 263 0.0 0.0 0.00 0.00 0.00 55 1014.9
20260903014508 23 268 0.0 0.0 0.00 0.00 0.00 54 1014.9
20260903013006 24 244 0.0 0.0 0.00 0.00 0.00 54 1015.0
20260903011506 25 273 0.0 0.0 0.00 0.00 0.00 54 1015.0
20260903010009 25 250 0.0 0.0 0.00 0.00 0.00 54 1015.0
20260903004507 25 287 0.0 0.0 0.00 0.00 0.00 53 1015.0
20260903003004 25 257 0.0 0.0 0.00 0.00 0.00 52 1015.0
20260903001504 26 271 0.0 0.0 0.00 0.00 0.00 52 1015.0
20260903000002 26 238 0.0 0.0 0.00 0.00 0.00 51 1015.2
20260902234609 26 254 0.0 0.0 0.00 0.00 0.00 50 1015.3
20260902233059 26 240 0.0 0.0 0.00 0.00 0.00 49 1015.3
20260902231558 27 268 0.0 0.0 0.00 0.00 0.00 48 1015.3
20260902230101 27 232 0.0 0.0 0.00 0.00 0.00 48 1015.3
20260902224559 27 275 0.0 0.0 0.00 0.00 0.00 49 1015.6
20260902223052 26 263 0.0 0.0 0.00 0.00 0.00 48 1015.7
20260902221550 26 251 0.0 0.0 0.00 0.00 0.00 50 1015.8
20260902220049 26 328 0.0 0.0 0.00 0.00 0.00 50 1016.1
20260902214549 26 286 0.0 0.0 0.00 0.00 0.00 51 1016.3
20260902213041 25 281 0.0 0.0 0.00 0.00 0.00 53 1016.4
20260902211538 25 247 0.0 0.0 0.00 0.00 0.00 52 1016.5
20260902210039 25 308 0.0 0.0 0.00 0.00 0.00 52 1016.6
20260902204541 25 245 0.0 0.0 0.00 0.00 0.00 53 1016.7
20260902203036 25 288 0.0 0.0 0.00 0.00 0.00 53 1016.8
20260902201542 25 229 0.0 0.0 0.00 0.00 0.00 53 1017.0
20260902200033 24 258 0.0 0.0 0.00 0.00 0.00 54 1017.2